Regional Weather Roundup
Issued by NWS

Home | Current Version | Previous Version | Text Only | Print | Product List | Glossary Off
Versions: 1 2 3 4 5 6 7 8 9 10 11 12 13 14 15 16 17 18 19 20 21 22 23 24 25 26 27 28 29 30 31 32 33 34 35 36 37 38 39 40 41 42 43 44 45 46 47 48 49 50

000
ASUS43 KFSD 191002
RWRSD

WEATHER ROUNDUP FOR SOUTH DAKOTA
NATIONAL WEATHER SERVICE SIOUX FALLS SD
400 AM CST FRI DEC 19 2014

NOTE: "FAIR" INDICATES FEW OR NO CLOUDS BELOW 12,000 FEET WITH NO
SIGNIFICANT WEATHER AND/OR OBSTRUCTIONS TO VISIBILITY.


SDZ001>005-009-010-012>017-191100-
NORTHWEST AND NORTH CENTRAL SOUTH DAKOTA

CITY           SKY/WX    TMP DP  RH WIND       PRES   REMARKS
BUFFALO          N/A     29  21  72 W12       29.88S WCI  19
FAITH            N/A     27  21  78 W9        29.96F WCI  18
MOBRIDGE       CLEAR     22  19  89 SE10      29.98F WCI  11
$$

SDZ012>016-024>037-041>051-057-063-072>074-191100-
SOUTHWEST AND SOUTH CENTRAL SOUTH DAKOTA

CITY           SKY/WX    TMP DP  RH WIND       PRES   REMARKS
RAPID CTY ARPT PTCLDY    28  18  66 NW7       29.98F WCI  21
PIERRE         FOG       12   8  84 E3        30.03F VSB 1/4
CUSTER         CLEAR     20  13  74 NW5       29.96F WCI  13
ELLSWORTH AFB  PTCLDY    26  17  69 W8        29.97F WCI  18
PHILIP         CLEAR     14  10  84 W6        30.01F WCI   5
PINE RIDGE     CLEAR     27  17  66 SW7       30.03S WCI  19
WINNER         FAIR      24  18  77 S5        30.04F WCI  18
$$

SDZ004>011-016>023-039-040-191100-
NORTHEAST SOUTH DAKOTA

CITY           SKY/WX    TMP DP  RH WIND       PRES   REMARKS
ABERDEEN       CLOUDY    28  24  85 S12       30.09S WCI  18
WATERTOWN      CLOUDY    26  24  92 S10       30.09F FOG     WCI  16
SISSETON         N/A     24  24 100 S10       30.12F WCI  14
$$

SDZ017-020-022-023-036>040-048>070-191100-
SOUTHEAST SOUTH DAKOTA

CITY           SKY/WX    TMP DP  RH WIND       PRES   REMARKS
SIOUX FALLS    CLOUDY    28  25  88 S8        30.15F WCI  20
HURON          CLOUDY    28  25  88 S13       30.10F WCI  17
MITCHELL       CLOUDY    29  26  89 S8        30.12F WCI  21
YANKTON        CLOUDY    28  25  86 S9        30.16F WCI  20
$$

ABBREVIATIONS USED IN REMARKS
   TC - TEMPERATURE IN CELSIUS
  WCI - WIND CHILL INDEX
   HX - HEAT INDEX
  VSB - VISIBILITY




USA.gov is the U.S. government's official web portal to all federal, state and local government web resources and services.